This is the latest recevied weather packets stored in our database for station/object SR4DIG-13. If no packets are shown the sender has not sent any weather packets the latest 10 day(s).
| Time | Temp. | Humidity | Pressure | Rain* | Wind** | Luminosity | Snow |
|---|---|---|---|---|---|---|---|
| 1777962506 | 19.44° C | 59% | 1011.2 hPa | 0 mm | - | - | - |
| 1777962205 | 18.89° C | 60% | 1010.9 hPa | 0 mm | - | - | - |
| 1777961904 | 18.33° C | 61% | 1010.9 hPa | 0 mm | - | - | - |
| 1777961483 | 17.78° C | 62% | 1011 hPa | 0 mm | - | - | - |
| 1777961182 | 17.78° C | 63% | 1010.8 hPa | 0 mm | - | - | - |
| 1777960580 | 16.67° C | 65% | 1010.8 hPa | 0 mm | - | - | - |
| 1777959995 | 16.67° C | 66% | 1010.9 hPa | 0 mm | - | - | - |
| 1777959694 | 16.67° C | 66% | 1010.8 hPa | 0 mm | - | - | - |
| 1777959394 | 16.11° C | 68% | 1010.9 hPa | 0 mm | - | - | - |
| 1777959093 | 15.56° C | 70% | 1010.8 hPa | 0 mm | - | - | - |
| 1777958792 | 15.56° C | 71% | 1010.8 hPa | 0 mm | - | - | - |
| 1777958491 | 15° C | 73% | 1010.9 hPa | 0 mm | - | - | - |
| 1777958190 | 13.89° C | 74% | 1010.8 hPa | 0 mm | - | - | - |
| 1777957843 | 13.89° C | 74% | 1010.8 hPa | 0 mm | - | - | - |
| 1777957542 | 13.89° C | 74% | 1010.7 hPa | 0 mm | - | - | - |
| 1777957242 | 13.33° C | 75% | 1010.7 hPa | 0 mm | - | - | - |
| 1777956941 | 13.33° C | 75% | 1010.9 hPa | 0 mm | - | - | - |
| 1777956355 | 12.78° C | 75% | 1010.8 hPa | 0 mm | - | - | - |
| 1777956055 | 12.78° C | 76% | 1010.8 hPa | 0 mm | - | - | - |
| 1777955754 | 12.78° C | 76% | 1010.9 hPa | 0 mm | - | - | - |
| 1777955453 | 12.22° C | 76% | 1010.8 hPa | 0 mm | - | - | - |
| 1777955152 | 12.22° C | 76% | 1010.7 hPa | 0 mm | - | - | - |
| 1777954851 | 12.22° C | 77% | 1010.7 hPa | 0 mm | - | - | - |
| 1777954551 | 12.22° C | 77% | 1010.7 hPa | 0 mm | - | - | - |
| 1777954204 | 12.22° C | 77% | 1010.8 hPa | 0 mm | - | - | - |
* Rain since midnight (hover to see other rain measurements)
** Current wind speed in m/s (hover to see current wind gust speed)